Find Starlink 4591

NORAD ID: 53607 • Int'l Des: 2022-104 • Owner: SPXS • Country: US • Constellation: starlink • operational
LEOCIRCULAR

現在のビュー

3D地球を読み込み中...

About Starlink 4591

Starlink 4591 (NORAD 53607) is a starlink constellation satellite (v1.5) launched Aug 28, 2022 by SPXS of US. It operates in LEO, CIRCULAR orbit with a mass of 300.00 kg.

次回通過

Passes for default location (London). Set your location on the main map for personalized predictions.

高度履歴

Loading altitude history...

軌道要素

1 53607U 22104V 26266.83958952 .00002390 00000-0 81862-4 0 9994
2 53607 53.1609 51.7416 0001130 77.5230 282.5899 15.34392426225843
Epoch: Sep 23, 2026 • Age: 22 hours

現在のステータス

高度 465.1 km
遠地点 / 近地点 N/A
速度 7.64 km/s
衛星直下点 36.44°N, 88.75°W
打ち上げ日 Aug 28, 2022
運用期間 4 years
タイプ internet

技術仕様

分類 Payload
質量 300.00 kg
乾燥質量 290.00 kg
長さ 0.20 m
スパン 9.00 m
形状 ? Box + pan
製造者 SPXS
バスタイプ Starlink
フェーズステータス In Orbit
所有者/国 SPXS/US

Most Searched